Flag for Germany Weather past 2 weeks in Emden, Lower Saxony, Germany

Now
62 °F

Partly sunny.


Feels Like: 62 °F
Forecast: 52 / 63 °F
Wind: 7 mph from Southwest

Location: Emden-Koenigspolder

Current Time: Sep 2, 2015 at 5:01:37 PM

Latest Report: Sep 2, 2015 at 4:00 PM


Visibility: 7 mi

Pressure: 29.93 "Hg

Humidity: 69%

Dew point: 52 °F

Location of EmdenLocation

Historic Weather in Emden — Graph

°F

Emden temperature yesterday

Maximum temperature yesterday: 67 °F (at 1:00 AM)
Minimum temperature yesterday: 57 °F (at 11:00 PM)
Average temperature yesterday: 62 °F

Past Weeks' High & Low Weather Summary

 TemperatureHumidityPressure
High78 °F (Aug 31, 6:00 PM)100% (Aug 20, 1:00 AM)30.25 "Hg (Aug 20, 1:00 AM)
Low52 °F (Aug 23, 6:00 AM)40% (Aug 22, 2:00 PM)29.47 "Hg (Aug 24, 6:00 PM)
Average63 °F79%29.95 "Hg
* Reported Aug 18 4:00 PM — Sep 2 4:00 PM, Emden, Weather by CustomWeather, © 2015

Note: Actual official high and low records may vary slightly from our data, if they occured in-between our weather recording intervals... More about our weather records

Advertising

Emden weather history for previous 24 hours

 ConditionsComfort  
Time TempWeatherWind HumidityBarometerVisibility
4:00 PM
Wed, Sep 2
62 °FPartly sunny.7 mph69%29.93 "Hg7 mi
3:00 PM59 °FLow clouds.6 mph71%29.94 "Hg17 mi
2:00 PM64 °FPartly sunny.6 mph62%29.93 "Hg16 mi
1:00 PM64 °FOvercast.7 mph65%29.93 "Hg16 mi
12:00 PM62 °FOvercast.7 mph66%29.93 "Hg28 mi
11:00 AM61 °FScattered clouds.8 mph71%29.93 "Hg16 mi
10:00 AM60 °FSunny.6 mph76%29.93 "Hg7 mi
9:00 AM57 °FSunny.6 mph83%29.92 "Hg9 mi
8:00 AM55 °FSunny.6 mph82%29.92 "Hg15 mi
7:00 AM54 °FSunny.5 mph85%29.92 "Hg31 mi
5:00 AM55 °FPassing clouds.5 mph82%29.93 "Hg25 mi
4:00 AM55 °FPassing clouds.5 mph83%29.93 "Hg40 mi
3:00 AM56 °FPassing clouds.5 mph83%29.93 "Hg25 mi
2:00 AM57 °FOvercast.5 mph83%29.93 "Hg22 mi
1:00 AM57 °FPassing clouds.5 mph84%29.93 "Hg25 mi
11:00 PM
Tue, Sep 1
57 °FPassing clouds.6 mph84%29.93 "Hg25 mi
10:00 PM57 °FClear.5 mph84%29.93 "Hg28 mi
9:00 PM58 °FPassing clouds.5 mph81%29.92 "Hg18 mi
8:00 PM60 °FScattered clouds.7 mph76%29.90 "Hg19 mi
7:00 PM62 °FOvercast.8 mph70%29.90 "Hg14 mi
6:00 PM62 °FOvercast.9 mph70%29.89 "Hg19 mi
5:00 PM62 °FOvercast.9 mph70%29.88 "Hg22 mi
Weather by CustomWeather, © 2015

See weather overviewHow to use our weather pages